OPS 4682 DEB, 38420

Orbit data source: Space-Track

OPS 4682 DEB, 38420 is space debris in LEO originally from a launch on Sat, 03 Apr 1965 UTC launched from the Air Force Western Test Range (AFWTR). Debris objects in space refer to the collection of defunct objects orbiting the Earth. Examples of debris include non-operational satellites, rocket bodies, and fragments generated from explosions, collisions, or faulty payload assembly.

Loading next visibility...
Identifier
38420, 1965-027DZ
Orbit
LEO
Country
Flag of USUS
Related business
Manufacturer
Unknown
Mission
Spacecraft
Bus & Motor
Unknown
Mass
Unknown
Launch date (UTC)
1965-04-03 (61 years ago)
Launch vehicle
Unknown
Launch site
Air Force Western Test Range (AFWTR)
Object type
Payload
Rocket body
Debris
Shape & HBR
Unknown shape, 0.1 m
Radar Cross Section
Medium (>0.1 m² and <1 m²)

Expand to show TLE details & history
Last TLE update: 15 hours ago

TLE from 15 hours ago
0 OPS 4682 DEB
1 38420U 65027DZ  26174.80491193 -.00000511  00000-0 -17209-2 0  9992
2 38420  90.2447  11.1061 0027012 251.6264 108.1920 12.99999352555243
Epoch: 2026-06-23T19:19Z
TLE epoch observation values (Epoch: 2026-06-23T19:19:04.390Z)
Latitude
-0.00005°
Longitude
169.3666°
Altitude
1,271.467 km
Speed
7.217 km/s
True Right ascension
00h 44m 25s
True Declination
0° 00' 00"
Sunlit
Object was in daylight at epoch
Visualization orbit readout
Latitude
Unknown
Longitude
Unknown
Altitude
Unknown
Speed
Unknown
Apparent Right ascension
Unknown
Apparent Declination
Unknown
Sunlit
N/A
Visualization observer readout
Local Sidereal Time
21:07:09
Azimuth
Unknown
Elevation
Unknown
Doppler factor
Unknown
Orbital elements
Apogee altitude
1,279.846 km
Perigee altitude
1,238.586 km
Semi-major axis
7,637.353 km
Eccentricity
0.0027
Inclination
90.2447°
RAAN
11.1061°
Arg. of periapsis
251.6264°
True anomaly
108.48575°
Mean anomaly
108.192°
Eccentric anomaly
108.33891°
Mean motion
3.25184 °/min
Orbital period
110.71 mins
BSTAR
-0.0017209
Loading maneuver chart data...
Computing Atmospheric mass density...
Loading historical data...
Loading historical data...
Loading historical data...
Loading historical data...
Loading historical data...
Loading historical data...
Loading historical data...

Documentation

Showing up to 5 results
|